Regional Weather Roundup
Issued by NWS

Home | Current Version | Previous Version | Text Only | Print | Product List | Glossary Off
Versions: 1 2 3 4 5 6 7 8 9 10 11 12 13 14 15 16 17 18 19 20 21 22 23 24 25 26 27 28 29 30 31 32 33 34 35 36 37 38 39 40 41 42 43 44 45 46 47 48 49 50

000
ASUS43 KMPX 051010
RWRMN
WEATHER ROUNDUP FOR MINNESOTA
NATIONAL WEATHER SERVICE TWIN CITIES/CHANHASSEN MN
500 AM CDT THU MAY 05 2016


NOTE: "FAIR" INDICATES FEW OR NO CLOUDS BELOW 12,000 FEET WITH NO
SIGNIFICANT WEATHER AND/OR OBSTRUCTIONS TO VISIBILITY. N/A MEANS
CURRENT SKY AND/OR WEATHER CONDITIONS ARE NOT AVAILABLE.

MNZ060>063-068>070-051100-
   Twin Cities Metro

CITY           SKY/WX    TMP DP  RH WIND       PRES   REMARKS
TWIN CITIES    MOCLDY    46  27  47 CALM      30.03R
ST PAUL        CLEAR     42  32  67 CALM      30.04R
CRYSTAL        CLOUDY    46  30  53 S5        30.01S
BLAINE         CLOUDY    43  34  70 CALM      30.02S
EDEN PRAIRIE   PTCLDY    47  30  51 S5        30.02R
SOUTH ST PAUL  CLEAR     41  32  70 CALM      30.03R
LAKE ELMO      FAIR      36  32  87 CALM      30.03S
$$
MNZ001>005-007-008-013>017-022>024-027-028-051100-
   Northwest Minnesota

CITY           SKY/WX    TMP DP  RH WIND       PRES   REMARKS
BEMIDJI        CLOUDY    45  29  53 SE3       29.97R
HALLOCK        CLEAR     50  28  43 S12       29.80S
ROSEAU         CLEAR     52  32  46 S16       29.85F
WARROAD        PTCLDY    52  34  50 S12G18    29.87S
THIEF RVR FALL PTCLDY    52  28  40 SE12      29.89F
CROOKSTON      CLEAR     54  30  40 S15       29.87F
FOSSTON        PTCLDY    52  27  37 S10       29.93R
DETROIT LAKES  CLEAR     48  37  66 SE6       29.96R
MOORHEAD       CLEAR     50  32  50 S10       29.92F
PARK RAPIDS    PTCLDY    44  30  57 SE3       29.98R
MAHNOMEN       FAIR      47  31  53 SE8       29.94R
$$
MNZ006-009>011-018-025>026-051100-
   North Central Minnesota

CITY           SKY/WX    TMP DP  RH WIND       PRES   REMARKS
BAUDETTE       CLOUDY    46  33  60 SE10      29.91S
FLAG ISLAND    PTCLDY    50  36  57 SE17      29.86S
INTL FALLS     CLOUDY    45  28  51 S7        29.91F
WASKISH        LGT RAIN  46  30  53 S6        29.93F
BIG FORK       CLEAR     45  27  49 SE3       29.97F
LONGVILLE      CLEAR     36  34  93 CALM      29.98R
GRAND RAPIDS   PTCLDY    43  25  49 E7        30.00R
CRANE LAKE     LGT RAIN  39  37  93 SE3       29.97S
ORR            CLOUDY    41  27  56 CALM      29.93F
COOK           CLOUDY    43  34  70 SW7       29.96F
WALKER         PTSUNNY   41  33  72 CALM      29.97S
$$
MNZ012-019>021-037-051100-
   Northeast Minnesota

CITY           SKY/WX    TMP DP  RH WIND       PRES   REMARKS
DULUTH         LGT RAIN  40  33  76 CALM      30.01R
ELY            CLOUDY    39  28  65 SW6       29.97S
HIBBING        CLOUDY    37  35  92 CALM      30.00R
EVELETH        RAIN      39  36  87 CALM      30.01R
DULUTH HARBOR  DRIZZLE   39  36  87 CALM      30.04R
TWO HARBORS    CLOUDY    36  30  80 CALM      29.98F
SILVER BAY     CLOUDY    30  28  93 CALM      29.98F
GRAND MARAIS     N/A     37  31  78 CALM      30.00S
G MARAIS ARPRT MOCLDY    32  27  80 CALM      29.98R
$$
MNZ029>031-032-039>041-046>048-054>057-064-051100-
   West Central Minnesota

CITY           SKY/WX    TMP DP  RH WIND       PRES   REMARKS
FERGUS FALLS   PTCLDY    46  36  66 SE7       29.94S
WHEATON        CLEAR     55  34  44 S9        29.97F
MORRIS         CLEAR     41  32  70 SE6       29.97S
ALEXANDRIA     CLEAR     47  28  47 S7        29.99S
ELBOW LAKE     FAIR      46  33  60 E8        29.97S
WADENA         CLEAR     43  28  56 CALM      29.98R
GLENWOOD       CLEAR     45  30  57 S7        29.99S
APPLETON       CLEAR     41  37  87 SE3       29.98S
BENSON         CLEAR     39  32  75 CALM      29.99S
ORTONVILLE     CLEAR     45  36  70 S5        29.98R
MADISON        CLEAR     45  34  65 SW5       29.99S
WILLMAR        FAIR      43  34  70 CALM      30.01S
$$
MNZ033>034-036-042>043-049>051-058-059-051100-
   Central Minnesota

CITY           SKY/WX    TMP DP  RH WIND       PRES   REMARKS
ST CLOUD       CLOUDY    40  35  83 CALM      30.00R
SAUK CENTRE    FAIR      38  32  78 CALM      29.99S
PAYNESVILLE    CLEAR     37  33  83 CALM      30.00S
AITKIN         CLOUDY    37  28  70 S3        29.97F
PINE RIVER     CLEAR     36  30  80 CALM      30.03R
BRAINERD       CLEAR     38  31  76 CALM      29.99S
STAPLES        CLEAR     36  30  80 CALM      29.98S
LONG PRAIRIE   FAIR      41  32  70 CALM      29.99S
LITTLE FALLS   PTCLDY    37  32  81 CALM      29.99F
LITCHFIELD     CLEAR     43  37  81 CALM      30.00F
BUFFALO        CLOUDY    45  32  60 CALM      30.02R
MAPLE LAKE     CLOUDY    46  37  72 CALM      30.02R
HUTCHINSON     CLEAR     37  33  83 CALM      30.01F
$$
MNZ037-044-045-052-053-051100-
   East Central Minnesota

CITY           SKY/WX    TMP DP  RH WIND       PRES   REMARKS
PRINCETON        N/A     46  30  53 S5        30.01S
MORA           CLOUDY    37  32  81 CALM      30.03S
CAMBRIDGE      CLOUDY    46  30  53 CALM      30.00S
RUSH CITY      CLOUDY    42  32  67 S7        30.00F
MOOSE LAKE     CLOUDY    37  36  93 CALM      30.01R
HINCKLEY       LGT RAIN  41  36  81 SW6       30.00F
CLOQUET        LGT RAIN  39  34  81 CALM      30.00R
MCGREGOR       CLOUDY    43  32  65 SE3       30.00R
$$
MNZ071>073-080-081-089-090-097-098-051100-
   Southwest Minnesota

CITY           SKY/WX    TMP DP  RH WIND       PRES   REMARKS
MONTEVIDEO     CLEAR     43  34  70 CALM      30.01S
GRANITE FALLS  CLEAR     42  33  70 CALM      30.01S
CANBY          CLEAR     53  35  50 SW5       30.00S
MARSHALL       CLEAR     42  33  70 SW8       30.00S
REDWOOD FALLS  CLEAR     43  29  57 CALM      30.00S
OLIVIA         CLEAR     41  30  65 CALM      29.99S
PIPESTONE      CLEAR     43  34  70 CALM      30.01S
WINDOM         CLEAR     39  34  81 CALM      30.02S
WORTHINGTON    CLEAR     43  33  68 SW3       30.02S
JACKSON        CLEAR     41  34  75 CALM      30.02S
TRACY          CLEAR     46  34  62 SW7       30.01S
SLAYTON        CLEAR     42  33  69 SW3       30.02F
$$
MNZ065>067-074>077-082>085-091>093-051100-
   South Central Minnesota

CITY           SKY/WX    TMP DP  RH WIND       PRES   REMARKS
MANKATO        CLEAR     41  28  60 SE9       30.02S
NEW ULM        CLEAR     43  30  61 S2        30.01R
ST JAMES       CLEAR     37  32  81 CALM      30.02S
FAIRMONT       CLEAR     39  30  70 CALM      30.01F
GLENCOE        CLEAR     43  32  65 CALM      30.00S
FARIBAULT      CLEAR     37  30  75 S2        30.02F
OWATONNA       CLEAR     39  27  60 CALM      30.03S
WASECA         CLEAR     36  28  75 CALM      30.04S
ALBERT LEA     CLEAR     39  28  65 CALM      30.03S
$$
MNZ078>079-086>088-094>096-051100-
   Southeast Minnesota

CITY           SKY/WX    TMP DP  RH WIND       PRES   REMARKS
ROCHESTER      CLEAR     43  24  47 NE5       30.03R
RED WING       CLEAR     34  30  86 CALM      30.02S
STANTON        CLEAR     33  29  83 CALM      30.02R
DODGE CENTER   PTCLDY    34  25  69 CALM      30.03R
WINONA         CLEAR     37  34  87 CALM      30.03S
AUSTIN         CLEAR     37  30  75 CALM      30.02F
PRESTON        CLEAR     41  25  53 NW3       30.03S
$$
ABBREVIATIONS USED IN REMARKS
   TC - TEMPERATURES IN CELSIUS
  WCI - WIND CHILL INDEX
   HX - HEAT INDEX
  VSB - VISIBILITY
$$




USA.gov is the U.S. government's official web portal to all federal, state and local government web resources and services.